Theta_e
318 319 319 320 320 319 318 316 315 314 315 316 316 316 316 315 313 313 316 319 319 319 317 317 322 322 321 323 325 325 328 326 325 326 325 325 326 326 328 326 328 327 327 326 326 333 334 329 329 329 326 327 327 327
318 319 318 320 319 318 317 316 315 314 315 315 315 316 316 316 316 315 315 320 320 321 318 317 321 322 321 321 322 322 324 324 326 323 324 325 328 324 324 330 326 329 325 327 327 327 325 327 328 328 327 327 327 328
318 318 318 319 318 318 316 315 314 314 315 315 315 315 315 316 319 319 321 318 319 320 323 325 324 325 324 323 323 322 322 323 324 324 323 323 326 322 326 326 330 326 326 325 326 326 325 326 327 327 327 328 328 328
318 319 318 317 317 318 315 314 314 314 314 315 314 314 315 315 319 322 321 319 317 318 319 325 323 323 322 323 322 322 322 323 323 323 322 319 323 321 324 324 326 325 326 325 325 326 326 326 327 328 327 327 327 326
318 317 316 317 318 317 315 314 314 313 314 315 314 314 315 315 316 318 322 322 318 316 315 317 324 324 323 323 323 322 322 323 322 322 317 318 319 321 318 323 326 327 324 326 327 327 326 327 328 328 327 327 326 326
317 316 316 317 318 316 315 314 313 313 314 314 314 314 315 315 318 319 324 323 319 318 317 315 324 324 324 324 323 324 325 324 323 323 322 324 325 324 320 326 326 328 329 327 328 327 328 328 327 327 326 326 326 325
317 315 316 317 317 316 314 313 312 313 313 313 314 314 315 318 321 321 321 321 320 317 320 320 320 325 324 324 325 324 324 325 326 324 324 325 325 323 323 327 327 327 329 329 328 328 327 327 326 326 326 325 324 323
315 316 316 316 316 316 313 312 313 313 313 313 314 316 317 322 322 324 321 318 317 318 321 317 318 324 323 324 322 322 323 324 325 325 325 324 326 324 326 325 326 326 327 328 328 328 328 326 326 325 325 324 323 323
313 315 316 315 315 314 312 312 313 313 313 313 314 320 320 324 322 322 319 320 321 317 321 320 320 322 322 322 320 321 321 319 321 321 322 324 322 324 326 324 325 326 327 327 327 327 326 326 324 324 324 322 322 321
311 314 315 315 315 313 312 312 312 313 313 313 315 321 323 324 320 317 323 324 326 325 324 321 322 320 322 321 318 319 320 317 318 318 323 319 322 327 326 326 325 326 326 327 326 325 325 324 324 324 323 323 323 322
310 314 314 315 315 313 312 312 312 312 313 313 313 316 318 317 320 323 324 324 323 321 322 322 321 319 321 317 316 319 316 315 321 323 322 325 325 326 326 326 325 325 326 327 326 326 326 326 325 324 324 323 323 322
314 315 314 315 314 313 313 313 311 311 311 311 314 318 323 325 324 323 321 323 321 323 322 320 321 321 321 322 318 317 318 317 323 320 325 324 324 324 325 326 326 325 324 325 325 325 326 326 325 326 325 324 323 322
314 314 314 313 313 313 313 312 311 311 311 314 320 322 323 323 317 325 325 321 320 323 323 322 320 321 322 321 318 316 318 317 319 321 325 323 321 323 325 325 324 324 324 324 323 324 325 326 324 324 325 324 324 323
314 313 313 312 312 313 313 312 311 311 311 315 320 313 318 320 321 320 322 319 323 324 323 322 322 321 321 319 316 320 318 318 321 324 324 320 320 321 322 322 323 323 323 323 322 323 323 323 324 324 324 324 324 324
313 313 312 312 313 312 311 311 311 311 312 316 320 317 318 321 322 324 323 322 322 322 323 322 319 321 318 319 316 317 321 323 322 322 319 321 322 321 322 321 322 322 321 322 322 322 322 322 323 322 321 323 324 324
313 312 312 313 312 311 311 312 312 317 319 320 320 320 320 320 321 321 322 321 322 322 322 321 318 319 320 318 322 323 324 325 320 317 320 321 322 321 321 323 322 323 323 322 322 322 322 322 322 322 323 324 323 323
312 312 313 312 311 312 311 315 317 318 319 320 320 320 320 320 320 321 321 321 321 321 320 318 321 321 317 320 322 319 319 320 319 318 319 321 322 322 321 322 322 322 322 322 320 320 321 322 323 323 322 322 322 322
312 312 312 311 312 311 314 317 316 318 319 319 319 319 319 319 319 320 320 319 320 320 320 318 318 317 319 321 319 316 318 318 319 321 321 321 322 322 322 322 322 321 321 321 320 320 321 322 322 322 323 323 323 323
312 312 312 312 310 310 313 317 318 317 318 318 318 318 318 319 319 319 319 319 320 320 320 319 317 317 316 318 319 319 321 319 319 320 322 321 320 321 321 321 321 321 321 320 321 320 321 322 321 318 317 318 317 316
312 311 312 310 311 312 313 317 317 318 317 317 317 317 318 318 317 318 319 319 320 319 318 316 316 319 319 319 320 319 320 320 321 321 320 320 319 318 319 320 320 321 321 319 320 321 322 321 319 317 317 317 315 314
312 311 310 311 312 314 314 314 316 317 317 316 316 315 316 317 317 318 318 319 320 318 318 319 319 319 320 320 321 321 321 321 321 321 319 318 319 320 320 319 320 320 321 320 321 320 319 319 319 318 317 316 314 314
311 311 310 312 313 313 314 313 314 315 315 316 315 316 318 317 318 318 318 319 320 318 318 319 320 320 320 320 320 320 320 320 319 319 318 318 319 319 319 320 320 321 321 320 320 320 319 318 318 318 316 315 314 315
311 311 311 312 312 312 312 313 314 315 316 316 317 316 317 317 318 317 317 319 319 318 317 317 319 319 319 318 318 319 320 320 320 318 317 318 318 319 320 320 320 320 320 319 319 319 319 318 317 317 317 317 316 315
310 311 311 312 312 311 313 314 316 315 316 316 315 316 315 316 317 316 317 317 318 318 318 318 316 315 315 315 316 316 317 317 317 317 317 317 317 317 317 318 319 318 317 317 318 318 318 318 318 317 317 317 314 312
309 310 310 310 311 312 314 315 316 315 316 316 316 315 315 317 317 314 315 318 316 317 317 317 317 316 316 315 316 316 317 317 317 318 318 318 318 318 317 316 317 317 316 316 316 317 317 317 317 316 315 313 311 310
307 310 310 312 313 313 314 315 315 315 314 315 315 315 314 314 314 316 315 318 317 317 318 318 316 316 316 317 317 317 317 316 317 318 318 318 317 316 314 316 317 317 316 316 316 316 317 316 318 317 313 310 310 309
309 310 311 312 312 313 314 314 314 314 314 315 314 314 314 315 317 316 318 318 318 317 318 318 316 316 317 317 317 317 316 317 318 317 317 317 317 315 312 313 312 311 310 309 312 316 316 317 317 317 314 310 309 309
312 313 310 313 313 314 314 313 313 314 314 314 314 314 316 317 316 316 316 316 316 317 318 317 316 316 316 317 316 316 317 317 317 318 317 315 315 316 313 311 311 310 309 309 308 309 310 312 311 311 310 309 309 309
311 312 312 312 313 314 314 314 314 314 315 315 313 313 315 315 316 316 316 316 317 317 317 317 316 316 316 315 316 316 317 317 317 317 316 315 314 313 314 314 312 310 309 309 309 309 308 309 309 309 309 310 310 310
311 311 312 314 314 314 314 314 315 315 316 315 315 316 316 316 316 317 317 317 316 316 317 317 316 316 316 317 317 317 317 317 317 317 317 315 312 314 313 311 310 311 311 310 309 309 309 309 309 309 309 310 310 310
312 313 313 314 315 315 316 316 316 316 317 317 317 316 316 316 318 318 318 317 317 317 316 317 317 317 316 317 317 317 317 317 317 317 316 316 311 310 310 310 309 309 309 309 309 309 309 309 309 309 309 309 309 310
314 314 314 315 315 316 316 317 317 317 318 319 319 319 319 319 318 318 318 318 316 317 317 316 316 317 317 317 317 316 316 316 317 318 318 317 313 311 310 310 310 311 310 309 308 309 309 309 309 309 309 309 309 309
315 315 315 315 316 317 318 318 320 320 319 319 320 320 319 319 319 318 316 316 317 317 316 316 317 317 317 317 317 314 312 314 316 316 316 316 315 314 313 313 310 308 307 308 308 309 309 308 308 308 309 308 308 309
Wind_Speed
31 30 28 26 27 28 26 26 28 28 27 26 25 25 23 21 19 12 2 6 7 5 11 5 4 3 6 3 2 7 4 6 5 4 2 2 3 3 1 2 4 7 6 3 4 4 5 5 2 7 9 26 26 21
28 27 27 25 27 26 24 26 26 27 26 25 24 23 22 19 17 12 2 6 12 9 7 15 9 11 13 8 6 6 1 2 1 3 0 1 2 1 3 2 3 2 4 5 3 4 4 6 10 33 35 31 21 22
27 26 26 26 26 24 24 26 25 26 26 25 23 22 19 16 13 10 6 13 10 5 8 3 6 5 2 2 3 3 3 5 3 4 2 1 2 3 2 4 3 1 2 4 3 5 4 24 29 28 25 26 21 17
25 22 25 26 24 23 24 25 26 26 25 24 22 21 16 13 8 6 7 12 19 5 3 2 10 5 3 3 5 2 5 6 6 6 2 2 2 4 3 3 3 2 3 5 3 2 11 16 25 29 26 23 21 16
22 23 25 24 22 22 24 26 27 26 25 22 21 20 15 11 7 6 3 6 15 8 3 9 7 13 6 3 1 3 6 8 7 1 1 3 3 1 2 2 1 3 7 5 5 21 10 23 25 22 21 19 16 13
21 24 24 22 21 22 24 27 28 27 23 21 20 17 13 9 7 4 2 3 9 15 4 4 5 11 7 4 3 6 8 4 3 2 4 4 3 1 3 2 6 7 13 10 7 29 26 25 22 18 19 18 15 13
22 24 22 22 22 23 25 28 30 25 22 21 18 13 9 5 4 3 2 7 11 10 3 6 7 4 14 10 8 8 7 4 3 3 2 3 2 1 3 3 5 4 9 12 26 27 24 25 20 16 18 18 17 15
24 24 22 22 22 22 25 29 27 24 22 20 14 8 4 1 1 1 4 9 7 2 2 1 4 4 16 8 8 12 9 4 6 5 4 4 7 2 2 5 15 16 20 24 28 28 26 23 22 19 19 21 18 15
27 22 21 22 22 21 25 27 26 25 23 16 8 4 2 2 1 5 11 4 2 1 1 1 1 3 9 8 7 7 7 4 9 4 4 6 3 2 5 3 14 19 12 21 19 19 22 21 18 17 22 19 15 13
27 21 19 20 19 20 24 26 27 26 22 13 4 1 2 2 8 10 2 1 0 1 1 1 2 2 7 7 6 7 5 2 4 2 12 3 0 3 12 14 8 8 15 17 23 20 19 18 17 18 17 12 9 9
20 16 17 18 18 19 22 23 27 26 20 16 8 1 4 7 2 1 1 0 1 2 1 2 3 1 5 2 1 4 0 3 3 4 3 3 2 3 2 13 11 15 13 11 12 15 13 13 15 14 13 12 11 9
14 14 17 16 17 18 18 21 26 25 21 20 11 8 3 1 0 1 1 1 1 2 1 1 1 1 1 1 3 3 1 1 1 3 2 3 3 11 2 8 5 6 3 10 2 6 12 12 9 11 11 11 9 11
14 15 15 16 17 15 16 19 22 23 21 9 3 3 3 1 4 2 1 2 1 3 5 4 0 1 1 0 3 2 1 3 1 1 1 3 7 8 7 5 7 7 5 4 3 7 9 11 10 11 12 10 8 11
16 15 16 17 16 15 18 19 21 19 9 3 2 5 2 2 3 1 1 3 1 2 5 4 0 1 1 1 2 0 3 2 1 3 2 2 3 4 5 7 7 7 4 4 4 6 2 8 11 9 8 9 8 9
16 15 16 14 14 18 18 19 16 12 3 3 2 2 4 3 2 5 5 4 2 3 2 1 1 0 1 1 1 1 1 2 1 2 2 14 9 4 5 10 9 6 4 6 3 9 10 5 5 6 9 10 9 9
17 18 14 16 19 19 19 15 6 2 2 2 4 3 4 1 2 1 3 2 3 3 1 1 2 2 2 2 1 1 1 2 3 3 10 12 5 7 10 6 8 3 4 3 5 8 9 8 9 10 11 12 13 13
16 15 17 18 20 19 13 4 1 2 2 3 5 8 9 7 3 1 5 5 4 4 2 3 1 4 1 1 1 2 4 3 10 15 8 11 11 6 9 11 10 6 6 7 9 9 9 8 9 11 11 11 11 12
18 15 13 17 21 19 2 1 2 2 4 5 4 11 10 1 2 2 3 1 3 2 2 2 0 2 0 2 2 3 8 9 7 11 15 13 10 7 8 11 10 8 10 9 10 8 6 7 6 4 1 2 4 5
19 13 11 12 18 15 4 1 2 3 4 6 6 7 4 1 4 3 1 3 4 6 4 3 2 2 3 5 5 9 10 12 13 10 11 8 10 12 13 12 12 12 8 9 9 7 6 2 4 3 5 14 11 11
13 10 8 13 10 4 4 2 3 4 3 4 7 11 6 2 4 5 5 5 6 2 1 1 3 3 4 5 7 5 7 9 7 8 10 9 10 11 10 9 10 11 13 11 8 6 3 8 6 5 9 6 7 6
9 8 10 9 5 3 4 3 3 3 5 5 7 11 6 5 6 5 4 2 3 2 2 1 4 5 8 7 4 5 5 4 6 10 12 14 12 12 11 11 11 9 8 7 4 7 11 8 4 4 6 4 3 3
8 10 11 4 3 3 4 4 5 8 4 6 8 3 4 2 3 3 4 1 3 2 2 3 3 3 3 3 3 4 5 6 8 10 12 13 13 12 10 7 6 3 3 2 7 11 10 6 4 2 6 7 6 6
7 8 4 2 3 3 4 4 3 3 1 3 5 3 1 2 3 6 2 2 2 2 3 3 3 3 5 5 7 8 8 8 9 10 10 6 6 6 4 4 3 2 2 4 9 13 12 8 2 5 7 5 4 3
7 3 2 2 3 4 5 3 3 3 3 2 2 3 2 2 5 2 2 1 1 4 1 2 3 5 10 11 11 10 6 6 3 7 9 9 11 11 8 5 3 7 8 7 13 11 8 8 5 0 3 2 2 2
3 3 2 4 4 3 3 3 2 1 2 1 2 2 3 3 1 1 1 0 2 5 2 1 5 11 14 13 8 3 2 10 12 11 12 12 8 7 5 5 8 11 16 12 9 13 6 8 5 6 3 2 1 1
3 3 5 3 3 3 2 2 2 1 2 2 2 3 3 2 1 1 1 2 2 1 1 1 6 13 10 6 3 7 11 12 6 7 10 9 9 8 9 11 6 5 4 4 7 4 3 1 4 4 5 8 3 2
3 4 5 6 5 6 4 3 4 2 2 2 1 2 1 2 1 1 2 2 3 3 2 2 5 13 10 5 8 12 12 4 5 8 7 7 6 8 7 6 7 7 7 6 7 5 1 3 5 6 10 8 3 1
5 4 4 2 5 6 3 2 2 2 2 2 0 1 2 1 1 4 3 6 4 3 2 5 9 17 12 11 13 10 8 6 7 8 11 17 18 5 5 6 7 8 11 12 3 3 4 5 6 7 8 4 3 6
5 5 4 8 7 5 5 5 3 3 3 3 3 2 3 7 8 6 7 6 9 6 6 10 8 9 3 9 4 3 3 1 4 8 12 15 14 14 6 2 2 4 5 7 9 10 7 3 1 2 3 4 4 6
5 7 4 4 3 3 4 7 6 6 5 8 10 10 12 16 13 10 11 12 11 10 8 8 12 7 6 4 2 5 5 4 3 2 6 10 11 10 6 1 1 3 2 4 4 4 3 2 3 7 7 7 9 9
4 6 5 5 4 8 10 10 11 11 13 14 13 13 17 10 8 6 8 9 11 12 12 9 6 3 7 6 4 3 3 6 7 4 1 2 3 6 5 6 5 2 1 3 5 9 6 6 8 7 7 10 10 8
5 8 4 3 5 7 8 7 2 3 4 5 5 4 2 2 1 3 4 6 8 9 12 11 9 7 5 3 2 1 5 6 8 8 6 5 4 2 1 1 3 6 9 11 8 6 6 5 5 6 9 10 9 10
9 10 7 4 4 3 2 3 2 0 0 1 3 3 2 1 2 3 2 5 6 7 7 8 5 10 10 7 1 3 4 5 8 9 10 11 11 10 10 8 6 7 6 4 7 8 9 8 9 9 11 13 14 14
Wind_Direction
332 334 335 339 340 341 343 346 349 350 350 350 351 352 354 356 359 5 256 319 335 288 288 245 249 291 342 354 121 325 7 359 19 52 104 230 189 241 342 242 184 179 158 181 96 93 257 161 165 169 147 131 135 129
333 333 333 339 338 340 342 343 345 347 347 347 347 348 350 353 359 7 65 340 313 274 272 296 271 288 272 273 310 345 186 245 271 78 235 104 271 5 149 254 9 286 195 164 171 214 304 243 145 131 135 133 132 126
328 329 333 335 336 338 341 343 344 344 345 343 344 345 347 350 360 16 24 8 1 313 306 23 24 83 89 48 278 288 341 352 355 354 172 211 275 120 176 244 141 146 146 90 73 328 34 117 125 130 136 132 135 136
323 324 330 332 333 336 339 342 342 341 340 339 339 340 342 344 348 7 15 14 16 340 342 329 38 79 77 81 64 120 304 306 311 322 227 163 214 183 218 223 161 186 76 121 59 351 110 137 139 136 134 136 134 130
332 334 333 333 333 335 338 340 339 339 337 335 334 334 333 339 327 325 317 1 15 9 298 307 51 44 96 90 13 317 306 317 288 271 77 241 250 112 12 65 291 195 169 153 201 185 170 163 151 146 146 146 140 138
332 335 335 333 332 334 335 337 338 337 336 332 328 328 325 334 339 345 253 284 340 356 320 336 350 20 41 13 324 3 8 339 281 247 228 257 267 211 103 214 258 248 222 196 191 173 156 156 156 159 146 145 140 137
328 332 333 333 334 334 335 335 335 336 336 332 326 323 314 333 359 11 12 327 327 324 298 316 341 18 13 19 1 2 8 2 331 286 260 286 327 136 121 191 234 178 169 203 164 156 146 157 151 156 150 147 143 135
324 328 329 330 332 334 336 337 338 339 338 334 326 324 280 356 49 57 323 328 329 310 293 28 286 18 14 5 354 354 336 339 20 344 354 17 322 16 232 238 150 132 132 141 151 161 158 151 146 147 156 154 150 145
322 321 323 328 330 332 336 337 338 341 341 336 331 344 188 242 296 325 331 338 343 282 8 57 73 292 358 18 351 349 356 356 349 24 356 354 344 32 288 298 149 128 134 150 152 150 147 150 150 152 158 158 151 148
311 317 321 326 327 329 336 337 337 343 346 346 346 230 200 257 306 316 314 345 235 109 36 66 351 321 353 3 15 3 14 20 5 307 326 41 87 359 78 109 93 117 142 159 147 146 154 154 157 161 169 171 167 147
307 320 326 328 328 329 334 336 338 344 354 5 352 314 293 297 303 250 262 143 130 43 88 89 32 314 11 47 271 24 143 346 9 333 16 334 8 348 65 123 61 79 110 150 169 167 174 181 171 172 172 177 178 174
313 326 327 326 327 329 331 333 335 341 343 329 305 307 331 327 309 50 278 150 65 211 143 128 89 42 52 18 68 7 99 42 296 336 323 320 288 328 35 167 201 219 156 130 166 185 188 187 188 195 195 199 205 192
321 323 320 323 325 325 330 330 328 330 331 329 331 320 340 186 44 212 170 335 356 185 195 200 274 185 173 189 80 70 73 231 88 357 262 234 300 297 263 215 168 171 142 143 181 230 199 196 206 214 206 205 201 196
320 320 318 318 316 317 323 323 321 325 330 312 328 328 176 270 244 205 184 174 166 242 204 228 248 139 151 89 150 87 236 120 271 208 236 299 314 285 238 232 202 92 65 350 281 316 102 239 230 228 225 230 231 220
324 325 324 324 318 321 322 319 317 310 263 284 276 256 233 278 141 116 121 93 248 236 206 199 60 18 348 109 199 6 253 265 284 277 270 338 329 210 119 84 145 155 338 326 206 233 256 273 259 260 259 244 235 232
326 332 329 326 326 331 325 325 310 290 257 265 251 288 304 49 323 122 125 3 244 237 228 50 79 38 281 155 88 271 312 3 267 228 305 334 337 233 230 270 314 288 245 270 297 289 286 279 268 261 250 253 254 241
325 331 327 323 329 338 327 329 278 271 270 251 255 291 293 261 295 227 212 244 217 205 209 119 271 224 143 109 220 206 197 218 280 309 320 335 342 287 256 265 285 301 286 282 298 293 294 282 270 278 280 270 262 239
324 323 322 321 329 340 339 271 271 258 261 264 292 325 335 221 146 94 167 170 220 136 223 204 309 43 272 182 249 243 247 237 286 317 332 313 314 307 290 283 277 276 279 278 296 293 290 291 276 276 227 129 139 181
323 323 326 328 331 334 310 271 264 270 262 302 330 337 334 137 42 343 291 314 265 236 178 185 132 192 232 219 243 268 256 255 274 298 307 296 302 297 293 291 282 285 269 286 283 283 290 192 149 133 149 133 113 113
309 317 317 320 324 307 296 275 275 273 281 315 306 342 335 280 336 313 268 256 232 182 104 122 213 229 240 276 294 277 264 289 275 288 290 282 301 293 294 298 293 279 274 270 279 262 198 163 146 121 137 144 141 150
313 321 329 333 318 274 276 302 274 287 305 299 303 320 293 303 306 303 280 280 170 149 170 271 308 313 318 300 280 284 295 291 289 292 301 304 304 297 297 292 289 281 279 262 235 169 158 144 108 175 193 190 158 121
313 325 331 317 288 284 268 245 265 296 273 280 300 282 276 294 298 298 320 183 97 96 99 44 349 341 351 330 300 292 293 284 288 295 299 299 301 302 295 286 295 270 210 227 168 164 161 145 67 249 221 203 221 259
323 330 311 285 278 259 268 270 252 244 238 274 305 292 296 310 306 326 62 74 126 117 164 20 16 9 349 324 298 284 284 283 282 296 308 306 306 289 276 287 263 238 245 195 170 166 152 102 139 62 127 161 206 246
308 290 265 259 256 267 295 262 248 266 275 281 293 303 271 264 309 12 83 41 125 178 263 3 34 2 338 316 308 306 300 243 322 85 81 73 61 59 52 51 126 126 115 115 160 165 133 21 34 189 150 146 271 176
292 239 247 270 248 255 262 270 245 278 277 271 271 287 296 288 302 73 88 285 120 164 182 278 331 327 325 327 323 304 126 126 112 78 75 72 66 58 49 77 122 142 128 128 154 170 266 343 57 108 127 216 166 33
262 221 201 233 243 198 251 290 4 320 293 275 271 314 317 22 320 170 236 176 227 227 296 330 352 348 343 342 31 126 129 128 83 87 36 50 53 67 72 77 103 130 175 228 260 260 241 271 163 198 207 197 206 309
266 265 239 245 268 289 276 267 265 239 253 259 263 305 325 276 57 61 60 20 38 6 353 136 16 13 22 67 120 138 140 86 98 15 59 51 43 49 78 113 98 82 58 36 50 65 139 262 243 246 216 204 216 280
248 270 224 296 270 244 233 251 227 238 249 245 344 6 339 348 241 198 226 223 213 263 176 132 78 43 27 128 124 140 176 146 10 47 83 72 56 97 118 104 118 106 70 48 50 90 129 157 164 155 175 190 229 262
246 239 264 269 263 253 224 212 231 236 226 213 160 204 188 249 283 268 270 280 199 202 202 188 161 18 86 171 211 209 194 313 26 50 43 44 50 50 82 161 146 127 103 74 61 61 67 64 89 271 253 270 283 327
249 207 226 253 228 231 240 214 235 268 275 273 269 278 260 261 292 296 257 245 228 228 235 225 204 351 302 226 277 259 258 273 278 353 13 34 40 25 14 49 126 206 253 273 292 309 325 314 287 270 255 269 280 281
259 204 227 243 251 256 270 274 280 276 277 279 281 278 274 290 292 275 250 233 233 237 225 213 233 189 286 291 283 312 266 218 215 228 227 358 77 49 54 111 111 94 320 307 322 321 291 268 291 308 307 306 303 267
221 217 222 226 263 310 295 279 283 231 255 291 303 286 248 251 300 330 273 219 212 205 203 221 226 214 236 226 141 39 291 253 243 252 259 253 239 266 280 314 323 322 309 302 315 329 302 282 275 305 309 311 307 300
233 252 249 245 273 291 270 229 230 248 285 18 36 49 5 342 12 32 78 150 159 163 179 190 191 191 210 241 313 9 327 280 264 260 258 256 262 273 285 297 311 335 349 343 345 356 349 328 308 295 299 308 310 307